Location: Baak
(52.0776°N, 6.2265°E)
Time: 17:22:00
(UTC+00:00)

Cosmos 1980 Rocket - Pass Details

Date: 14 August 2025
Orbit: 827 x 850 km, 71.0° (Epoch: 13 April)

Event Time Altitude Azimuth Distance (km) Brightness Sun altitude
Rises 02:42:38 0° 330° (NNW) 3,420 5.6 -12.8°
Reaches altitude 10° 02:45:10 10° 335° (NNW) 2,483 4.9 -12.5°
Maximum altitude 02:50:44 52° 52° (NE) 1,050 3.2 -11.9°
Drops below altitude 10° 02:56:17 10° 128° (SE) 2,475 4.8 -11.2°
Sets 02:58:48 0° 134° (SE) 3,407 5.4 -11.0°
